sat.trackr.live / text

‹ back to catalog

STARLINK-35461

NORAD 66088 · 2025-236C

PAYLOAD ACTIVE UNKNOWN

§ Identity

Operator
Country
US
Launch date
2025-10-19
Launch site
AFWTR
Launch vehicle
Mass (kg)
RCS (m²)

Purposes: comms

External: N2YO · Heavens-Above · Gunter

§ Orbital elements

Epoch: 2026-09-20T05:47:28.370112Z

Period
93.85 min
Inclination
53.1590°
Eccentricity
0.0001278
Mean motion
15.34400037 rev/d
Perigee alt
461.8 km
Apogee alt
463.6 km
Semi-major
6,840.8 km
B*
6.7604e-4
RAAN
278.6182°
Arg perigee
91.2818°
Mean anomaly
268.8331°
Rev number
5,269

§ Raw data

STARLINK-354611 66088U 25236C   26263.24130058  .00022534  00000+0  67604-3 0  99992 66088  53.1590 278.6182 0001278  91.2818 268.8331 15.34400037 52694

JSON: /api/v1/satellites/66088 · /tle

For live sub-satellite position, see the globe view (requires WebGL).

§ Visibility from observer

Set your observer location to see the next 7 days of passes ≥ 10°. The values pass through the URL so the page stays shareable.

No JS? Fill the form by hand. The geolocation button needs JavaScript.